MQT1BZ LSZH-GCFV

Flight info

Callsign MQT1BZ
Flight time N/A
Altitude 33000
Route VEBIT T50 ROTOS Z669 ULMES DCT VADAR DCT NINTU/N0489F410 DCT MEBAK DCT REPSI DCT LERGA DCT MINSO DCT NARAK DCT AGN DCT MAQAB DCT TIVLI DCT ELSAP DCT ZAR DCT EXEMU DCT PISUS DCT EDIMU DCT ADUXO DCT NUSGO DCT OBIBO DCT NASOS DCT ANZAN DCT BLN DCT MGA DCT PIMOS DCT GALTO UN869 RUSIK
Aircraft A359/H-SDE2E3GHIJ3J4J5LM1ORWXY/LB1D1

Departure

Time 2026-05-07 07:37
Airport Zürich Airport (LSZH)

Arrival

Time N/A
Airport Fuerteventura Airport (GCFV)
Time Latitude Longitude Altitude Speed Heading
2026-05-07 07:19 47.45425 8.56004 1403 ft 0 kts 186°
2026-05-07 07:29 47.45444 8.56007 1403 ft 4 kts 186°
2026-05-07 07:29 47.45465 8.56010 1403 ft 4 kts 165°
2026-05-07 07:30 47.45481 8.55998 1403 ft 4 kts 123°
2026-05-07 07:30 47.45492 8.55964 1409 ft 4 kts 102°
2026-05-07 07:30 47.45495 8.55937 1403 ft 1 kts 96°
2026-05-07 07:32 47.45494 8.55942 1403 ft 4 kts 97°
2026-05-07 07:32 47.45481 8.56040 1403 ft 15 kts 105°
2026-05-07 07:33 47.45458 8.56171 1403 ft 7 kts 83°
2026-05-07 07:33 47.45484 8.56230 1403 ft 8 kts 41°
2026-05-07 07:33 47.45527 8.56284 1403 ft 8 kts 45°
2026-05-07 07:33 47.45569 8.56356 1403 ft 10 kts 59°
2026-05-07 07:34 47.45594 8.56452 1403 ft 10 kts 73°
2026-05-07 07:34 47.45587 8.56549 1403 ft 10 kts 97°
2026-05-07 07:34 47.45578 8.56658 1403 ft 11 kts 97°
2026-05-07 07:34 47.45568 8.56778 1403 ft 12 kts 97°
2026-05-07 07:35 47.45556 8.56913 1403 ft 14 kts 97°
2026-05-07 07:35 47.45593 8.57009 1405 ft 9 kts 19°
2026-05-07 07:35 47.45637 8.57014 1404 ft 0 kts
2026-05-07 07:35 47.45641 8.57012 1404 ft 5 kts 353°
2026-05-07 07:36 47.45662 8.56970 1410 ft 4 kts 278°
2026-05-07 07:36 47.45670 8.56878 1408 ft 28 kts 278°
2026-05-07 07:36 47.45717 8.56257 1412 ft 91 kts 276°
2026-05-07 07:36 47.45803 8.55054 1404 ft 143 kts 275°
2026-05-07 07:37 47.45918 8.53465 1681 ft 165 kts 277°
2026-05-07 07:37 47.46049 8.51630 1862 ft 189 kts 277°
2026-05-07 07:37 47.46198 8.49543 2103 ft 219 kts 277°
2026-05-07 07:37 47.46370 8.47169 2454 ft 245 kts 277°
2026-05-07 07:38 47.46527 8.44624 3319 ft 246 kts 272°
2026-05-07 07:38 47.46028 8.42307 4439 ft 236 kts 234°
2026-05-07 07:38 47.44729 8.40899 5495 ft 227 kts 204°
2026-05-07 07:38 47.43309 8.39985 6501 ft 217 kts 211°
2026-05-07 07:39 47.42054 8.38845 7462 ft 207 kts 220°
2026-05-07 07:39 47.40968 8.37509 8355 ft 202 kts 225°
2026-05-07 07:39 47.39977 8.36027 9144 ft 201 kts 229°
2026-05-07 07:39 47.39077 8.34439 9878 ft 204 kts 236°
2026-05-07 07:40 47.38324 8.32645 10622 ft 207 kts 241°
2026-05-07 07:40 47.37625 8.30763 11327 ft 211 kts 242°
2026-05-07 07:40 47.36927 8.28833 12018 ft 215 kts 242°
2026-05-07 07:40 47.36225 8.26876 12718 ft 218 kts 242°
2026-05-07 07:41 47.35511 8.24879 13414 ft 222 kts 242°
2026-05-07 07:41 47.34794 8.22857 14156 ft 221 kts 242°
2026-05-07 07:41 47.34053 8.20776 14705 ft 234 kts 242°
2026-05-07 07:41 47.33263 8.18564 15031 ft 254 kts 242°
2026-05-07 07:42 47.32408 8.16169 15361 ft 274 kts 242°
2026-05-07 07:42 47.31491 8.13598 15702 ft 293 kts 242°
2026-05-07 07:42 47.30520 8.10861 16049 ft 311 kts 242°
2026-05-07 07:42 47.29486 8.07956 16398 ft 328 kts 242°
2026-05-07 07:43 47.28402 8.04912 16842 ft 342 kts 242°
2026-05-07 07:43 47.27287 8.01776 17484 ft 348 kts 242°
2026-05-07 07:43 47.26233 7.98536 18155 ft 354 kts 245°
2026-05-07 07:43 47.25249 7.95178 18775 ft 361 kts 247°
2026-05-07 07:44 47.24293 7.91729 19443 ft 365 kts 248°
2026-05-07 07:44 47.23376 7.88353 20114 ft 369 kts 248°
2026-05-07 07:44 47.22490 7.85102 20748 ft 371 kts 248°
2026-05-07 07:44 47.21517 7.81560 21393 ft 375 kts 248°
2026-05-07 07:45 47.20527 7.77993 22017 ft 379 kts 248°
2026-05-07 07:45 47.19474 7.74413 22603 ft 384 kts 244°
2026-05-07 07:45 47.18066 7.70966 23054 ft 392 kts 236°
2026-05-07 07:45 47.16482 7.67714 23563 ft 398 kts 233°
2026-05-07 07:46 47.14762 7.64443 24136 ft 402 kts 232°
2026-05-07 07:46 47.13009 7.61225 24696 ft 405 kts 232°
2026-05-07 07:46 47.11232 7.58001 25252 ft 408 kts 231°
2026-05-07 07:46 47.09439 7.54748 25814 ft 411 kts 231°
2026-05-07 07:47 47.07643 7.51478 26366 ft 414 kts 232°
2026-05-07 07:47 47.05835 7.48167 26931 ft 416 kts 232°
2026-05-07 07:47 47.04027 7.44851 27458 ft 418 kts 232°
2026-05-07 07:47 47.02206 7.41506 27984 ft 421 kts 232°
2026-05-07 07:48 47.00375 7.38140 28470 ft 424 kts 231°
2026-05-07 07:48 46.98531 7.34768 28991 ft 425 kts 231°
2026-05-07 07:48 46.96671 7.31379 29445 ft 428 kts 231°
2026-05-07 07:48 46.94798 7.27971 29893 ft 430 kts 231°
2026-05-07 07:49 46.92895 7.24500 30341 ft 433 kts 231°
2026-05-07 07:49 46.91009 7.21061 30748 ft 435 kts 231°
2026-05-07 07:49 46.89105 7.17596 31140 ft 438 kts 231°
2026-05-07 07:49 46.87194 7.14121 31502 ft 441 kts 231°
2026-05-07 07:50 46.85261 7.10610 31873 ft 444 kts 231°
2026-05-07 07:50 46.83296 7.07047 32224 ft 447 kts 231°
2026-05-07 07:50 46.81363 7.03545 32562 ft 449 kts 231°
2026-05-07 07:50 46.79399 6.99990 32905 ft 452 kts 231°
2026-05-07 07:51 46.77395 6.96367 33210 ft 454 kts 231°
2026-05-07 07:51 46.75405 6.92776 33533 ft 456 kts 231°
2026-05-07 07:51 46.73407 6.89175 33826 ft 458 kts 231°
2026-05-07 07:51 46.71398 6.85559 34120 ft 460 kts 231°
2026-05-07 07:52 46.69378 6.81926 34364 ft 463 kts 231°
2026-05-07 07:52 46.67346 6.78274 34573 ft 466 kts 231°
2026-05-07 07:52 46.65428 6.74453 34798 ft 468 kts 237°
2026-05-07 07:52 46.63682 6.70460 35225 ft 466 kts 238°
2026-05-07 07:53 46.61978 6.66450 35582 ft 466 kts 238°
2026-05-07 07:53 46.60295 6.62425 35861 ft 466 kts 238°
2026-05-07 07:53 46.58615 6.58386 36166 ft 467 kts 239°
2026-05-07 07:53 46.56936 6.54351 36496 ft 466 kts 239°
2026-05-07 07:54 46.55257 6.50325 36786 ft 466 kts 239°
2026-05-07 07:54 46.53579 6.46311 37140 ft 463 kts 239°
2026-05-07 07:54 46.51909 6.42331 37556 ft 460 kts 239°